CZ-4C DEB, 44618

Orbit data source: Space-Track

CZ-4C DEB, 44618 is space debris in LEO originally from a launch on Tue, 10 Apr 2018 UTC launched from the Taiyaun Space Center, China (TSC). Debris objects in space refer to the collection of defunct objects orbiting the Earth. Examples of debris include non-operational satellites, rocket bodies, and fragments generated from explosions, collisions, or faulty payload assembly.

Loading next visibility...
CZ-4C DEB details
Identifier
44618, 2018-034K
Orbit
LEO
Last TLE update2 days ago
Origin
Flag of CNCNSA (CN / PRC)
ManufacturerUnknown
MissionSpacecraft
Bus & MotorUnknown
MassUnknown
Launch date (UTC)
2018-04-10 (7 years ago)
Launch vehicleUnknown
Launch site
Taiyaun Space Center, China (TSC)
Object type
Payload
Rocket body
Debris
Shape & HBRUnknown
Radar Cross SectionSmall (<0.1 m²)

Expand to show TLE details & history

TLE from 2 days ago
0 CZ-4C DEB
1 44618U 18034K   24359.96170358 -.00000061  00000-0  44073-4 0  9991
2 44618  63.4679  89.4274 0210832 347.9718  11.6315 13.42007572304486
Epoch: 2024-12-24T23:04Z
Definitive object data (Epoch: 2024-12-24T23:04:51.189Z)
Latitude-0.00002°
Longitude9.25181°
Altitude949.242 km
Speed7.453 km/s
True Right ascension05h 57m 42s
True Declination0° 00' 00"
Sunlit
Object was in full shadow at TLE epoch
Visualization TLE readout
Latitude-62.60981°
Longitude-68.54121°
Altitude1,068.849 km
Speed7.345 km/s
Apparent Right ascension02h 11m 56s
Apparent Declination-53° 20' 19"
Sunlit
Object is in daylight
Visualization observer readout
Local Sidereal Time15:11:05
Azimuth148.1° SSE
Elevation-73.239°
Doppler factor1
Orbital elements
Apogee altitude1,258.309 km
Perigee altitude942.956 km
Semi-major axis7,478.769 km
Eccentricity0.0210832
Inclination63.4679°
RAAN89.4274°
Arg. of periapsis347.9718°
True anomaly12.13148°
Mean anomaly11.6315°
Eccentric anomaly11.88018°
Mean motion3.35581 °/min
BSTAR0.000044073
Orbital period107.28 mins
Loading maneuver chart data...
Loading historical data...
Loading historical data...
Loading historical data...
Loading historical data...
Loading historical data...
Loading historical data...
Loading historical data...

CZ-4C DEB Visibility forecast

Observer location: undefined°, undefined

Span
Click to sort rows by Start time (UTC) header in descending order
Start Az.
Max El. time (UTC)
Max El. Az.
Max El.
End time (UTC)
End Az.
14 mins2024-12-26 16:46:01.632Z322.851° NNW2024-12-26 16:53:01.632Z232.599° WSW44.216°2024-12-26 17:00:01.632Z155.858° SSE
5 mins2024-12-26 18:41:01.632Z270.546° WNW2024-12-26 18:43:01.632Z253.685° W14.054°2024-12-26 18:46:01.632Z229.853° WSW
9 mins2024-12-27 06:39:01.632Z161.618° S2024-12-27 06:43:01.632Z106.642° ESE27.985°2024-12-27 06:48:01.632Z53.684° ENE
10 mins2024-12-27 08:29:01.632Z245.839° WSW2024-12-27 08:33:01.632Z304.823° NW36.438°2024-12-27 08:39:01.632Z22.762° NE
5 mins2024-12-27 10:24:01.632Z317.3° NNW2024-12-27 10:26:01.632Z336.467° NNW14.122°2024-12-27 10:29:01.632Z3.478° NNE
9 mins2024-12-27 14:11:01.632Z357.861° N2024-12-27 14:15:01.632Z37.133° NE19.818°2024-12-27 14:20:01.632Z79.059° E
|